Flag for Australia Weather past 2 weeks in Hobart, Tasmania, Australia

Now
50 °F

Passing clouds.


Feels Like: 45 °F
Forecast: 46 / 57 °F
Wind: 13 mph from West

Location: Hobart Airport


UV Index: 0 (Low)

Visibility: N/A


Pressure: 29.95 "Hg

Humidity: 58%

Dew point: 36 °F

Location of HobartLocation

Historic Weather in Hobart

°F

Hobart temperature yesterday

Maximum temperature yesterday: 64 °F (at 10:00 AM)
Minimum temperature yesterday: 46 °F (at 7:30 AM)
Average temperature yesterday: 55 °F

Past Weeks' High & Low Weather Summary

 TemperatureHumidityPressure
High72 °F (Apr 9, 2:00 PM)100% (Apr 7, 6:00 AM)30.39 "Hg (Apr 7, 6:00 AM)
Low45 °F (Apr 16, 4:30 AM)34% (Apr 13, 2:00 PM)29.71 "Hg (Apr 18, 10:00 AM)
Average58 °F70%30.16 "Hg
* Reported Apr 4 4:00 AM — Apr 19 3:30 AM, Hobart, Weather by CustomWeather, © 2014

Note: Actual official high and low records may vary slightly from our data, if they occured in-between our weather recording intervals... More about our weather records

Advertising

Historic Weather Conditions — Data for Previous 24 hours

 ConditionsComfort  
Time TempWeatherWind HumidityBarometerVisibility
3:30 AM
Apr 19
50 °FPassing clouds.10 mph58%29.92 "HgN/A
3:00 AM50 °FPassing clouds.13 mph58%29.92 "HgN/A
2:30 AM50 °FPassing clouds.14 mph58%29.92 "HgN/A
2:00 AM52 °FPassing clouds.13 mph54%29.92 "HgN/A
1:30 AM50 °FPassing clouds.10 mph58%29.92 "HgN/A
1:00 AM52 °FPassing clouds.10 mph54%29.92 "HgN/A
12:30 AM52 °FPassing clouds.12 mph54%29.92 "HgN/A
12:00 AM52 °FPassing clouds.12 mph54%29.92 "HgN/A
11:00 PM
Apr 18
52 °FPassing clouds.14 mph54%29.92 "HgN/A
10:30 PM54 °FPassing clouds.12 mph54%29.92 "HgN/A
10:00 PM52 °FPassing clouds.10 mph58%29.92 "HgN/A
9:30 PM52 °FPassing clouds.12 mph58%29.89 "HgN/A
9:00 PM52 °FPassing clouds.13 mph58%29.89 "HgN/A
8:30 PM54 °FPassing clouds.13 mph54%29.89 "HgN/A
8:00 PM54 °FPassing clouds.13 mph54%29.89 "HgN/A
7:30 PM54 °FPassing clouds.15 mph54%29.89 "HgN/A
7:00 PM54 °FPassing clouds.18 mph54%29.86 "HgN/A
6:30 PM54 °FPassing clouds.16 mph54%29.86 "HgN/A
6:00 PM54 °FPassing clouds.14 mph54%29.86 "HgN/A
5:30 PM55 °FPassing clouds.14 mph47%29.83 "HgN/A
5:00 PM55 °FPassing clouds.20 mph47%29.83 "HgN/A
4:30 PM57 °FScattered clouds.21 mph41%29.80 "HgN/A
4:00 PM57 °FScattered clouds.21 mph48%29.80 "HgN/A
3:30 PM59 °FScattered clouds.17 mph48%29.77 "HgN/A
3:00 PM59 °FBroken clouds.20 mph48%29.77 "HgN/A
2:57 PM59 °FBroken clouds.17 mph48%29.77 "HgN/A
2:00 PM59 °FBroken clouds.12 mph51%29.77 "HgN/A
1:30 PM57 °FBroken clouds.10 mph51%29.77 "HgN/A
1:00 PM57 °FBroken clouds.14 mph55%29.77 "HgN/A
12:30 PM55 °FPartly sunny.8 mph67%29.77 "HgN/A
12:00 PM57 °FPartly sunny.7 mph55%29.77 "HgN/A
11:30 AM57 °FPartly sunny.6 mph59%29.77 "HgN/A
11:00 AM57 °FPartly sunny.7 mph63%29.80 "HgN/A
10:30 AM57 °FSleet. Broken clouds.17 mph77%29.77 "HgN/A
10:00 AM64 °FPartly sunny.7 mph60%29.71 "HgN/A
9:00 AM61 °FPassing clouds.7 mph72%29.74 "HgN/A
8:30 AM59 °FPassing clouds.10 mph77%29.77 "HgN/A
8:00 AM54 °FPassing clouds.6 mph88%29.77 "HgN/A
7:30 AM46 °FPartly sunny.No wind93%29.77 "HgN/A
7:00 AM48 °FPartly sunny.No wind87%29.80 "HgN/A
6:30 AM48 °FScattered clouds.3 mph94%29.80 "HgN/A
6:00 AM50 °FSunny.No wind88%29.80 "Hg10 mi
5:30 AM52 °FClear.No wind88%29.83 "Hg10 mi
5:00 AM54 °FClear.2 mph82%29.83 "Hg10 mi
4:30 AM54 °FClear.8 mph82%29.83 "Hg10 mi
4:00 AM52 °FClear.5 mph88%29.86 "Hg10 mi
Weather by CustomWeather, © 2014

See weather overview